Preview of NWS' New Version of Forecast
This preview is not operational and should not be used for support decisions.

Regional Weather Roundup (RWR)

Issued by National Weather Service (NWS)

                            
000
ASUS44 KMEG 190610
RWRTN 
TENNESSEE HOURLY STATE WEATHER ROUNDUP
NATIONAL WEATHER SERVICE MEMPHIS TN
1200 AM CST TUE FEB 19 2019

TNZ002-004-019-021-049-052-054-088>092-190700-
WEST TENNESSEE
  
CITY           SKY/WX    TMP DP  RH WIND       PRES   REMARKS
MEMPHIS INTL   MOCLDY    35  25  66 NE10      30.47R WCI  27          
NWS MEMPHIS      N/A     34 N/A N/A MISG        N/A                   
JACKSON        FAIR      33  24  69 NE14      30.49R WCI  23          
DYERSBURG      FAIR      32  25  75 NE10      30.52R WCI  24          
COVINGTON      CLEAR     32  27  80 NE12      30.49R WCI  23          
UNION CITY     CLEAR     30  23  74 NE8       30.50F WCI  23          
PARIS          CLEAR     30  23  74 NE10      30.50S WCI  21          
SELMER         MOCLDY    34  25  69 E7        30.45R WCI  28          
SAVANNAH       MOCLDY    36  27  69 NE6       30.46S WCI  31          
$$

TNZ008-025-027-028-033-062-065-066-190700-
NORTH MIDDLE TENNESSEE
  
CITY           SKY/WX    TMP DP  RH WIND       PRES   REMARKS
NASHVILLE      MOCLDY    33  22  63 N10       30.51S WCI  25          
DICKSON        CLEAR     28  23  80 NE7       30.47F WCI  21          
CLARKSVILLE    FAIR      29  21  72 E3        30.52S                  
LEBANON        CLEAR     32  25  74 N5        30.49S WCI  27          
SMYRNA         FAIR      32  24  72 N10       30.51F WCI  24          
MURFREESBORO   PTCLDY    32  25  74 N8        30.47F WCI  25          
COOKEVILLE     PTCLDY    30  25  80 NE3       30.46F                  
LIVINGSTON     CLOUDY    28  23  80 CALM      30.45S                  
GALLATIN       CLEAR     30  23  74 N5        30.54S WCI  25          
CROSSVILLE     FAIR      28  21  75 E6        30.43S WCI  22          
ROCKWOOD       CLEAR     28  23  80 NE5       30.43S WCI  23          
$$

TNZ061-075-076-078-094-096-097-190700-
SOUTH MIDDLE TENNESSEE
  
CITY           SKY/WX    TMP DP  RH WIND       PRES   REMARKS
LAWRENCEBURG   CLEAR     32  23  69 NE8G14    30.45R WCI  25          
LEWISBURG      PTCLDY    32  25  74 NE8       30.47S WCI  25          
FAYETTEVILLE   CLEAR     34  27  75 NE10      30.43R WCI  26          
TULLAHOMA      CLEAR     32  23  69 NE6G13    30.43S WCI  26          
WINCHESTER     CLEAR     34  27  75 NE8       30.43S WCI  27          
MCMINNVILLE    PTCLDY    32  25  74 NE8       30.46S WCI  25          
COLUMBIA       MOCLDY    34  25  69 NE8       30.46S WCI  27          
SHELBYVILLE    CLEAR     32  27  80 N7        30.46F WCI  26          
$$

TNZ017-018-042-046-047-190700-
NORTHEAST TENNESSEE
  
CITY           SKY/WX    TMP DP  RH WIND       PRES   REMARKS
TRI CITIES     MOCLDY    30  22  72 CALM      30.45S                  
ELIZABETHTON   FAIR      32  23  69 CALM      30.44S                  
GREENEVILLE    CLOUDY    32  23  69 NE6       30.44R WCI  26          
$$

TNZ012-013-036-069-073-074-190700-
CENTRAL EAST TENNESSEE
  
CITY           SKY/WX    TMP DP  RH WIND       PRES   REMARKS
KNOXVILLE      MOCLDY    33  24  69 N8        30.45S WCI  26          
OAK RIDGE      FAIR      33  24  69 CALM      30.49R                  
DOWNTOWN KNOXV PTCLDY    34  25  69 CALM      30.48S                  
GATLINBURG     PTCLDY    34  27  75 CALM      30.46S                  
MORRISTOWN     PTCLDY    32  25  74 NE6       30.44S WCI  26          
JACKSBORO      CLOUDY    28  25  86 CALM      30.50S                  
$$

TNZ083-085-099-190700-
SOUTHEAST TENNESSEE
  
CITY           SKY/WX    TMP DP  RH WIND       PRES   REMARKS
CHATTANOOGA    FAIR      37  24  59 N14       30.45R WCI  28          
DAYTON         CLEAR     34  27  75 N5        30.46S WCI  30          
$$

SKY/WX REPORTED AS FAIR MEANS FEW OR NO CLOUDS BELOW
12 THOUSAND FEET.